K4AVM-13 Weather Reports


time (UTC)temp
C
wind
direction
speed
KPH
gust
KPH
rain 1hr
cm
rain 24hr
cm
rain mn
cm
humidity
%
barometer
mb
20260507230600 10 153 0.0 0.0 0.00 0.36 0.36 89 1012.1
20260507230056 10 152 0.0 0.0 0.00 0.36 0.36 91 1011.9
20260507225551 10 154 0.0 0.0 0.00 0.36 0.36 91 1011.8
20260507225048 10 161 0.0 0.0 0.00 0.36 0.36 90 1012.0
20260507224544 10 164 0.0 0.0 0.00 0.36 0.36 89 1011.9
20260507224041 11 155 0.0 0.0 0.00 0.36 0.36 88 1011.8
20260507223537 11 145 0.0 3.2 0.00 0.36 0.36 87 1011.8
20260507223034 11 140 0.0 0.0 0.00 0.36 0.36 91 1011.9
20260507222531 11 151 0.0 0.0 0.00 0.36 0.36 91 1012.0
20260507222027 11 153 0.0 0.0 0.00 0.36 0.36 92 1012.1
20260507221524 11 147 0.0 0.0 0.00 0.36 0.36 93 1011.7
20260507221021 11 151 0.0 0.0 0.00 0.36 0.36 93 1011.7
20260507220518 11 103 0.0 0.0 0.00 0.36 0.36 92 1011.7
20260507220015 11 153 0.0 0.0 0.00 0.36 0.36 93 1012.1
20260507215511 11 149 0.0 0.0 0.00 0.36 0.36 94 1011.6
20260507215009 11 153 0.0 0.0 0.00 0.36 0.36 93 1012.0
20260507214506 11 151 0.0 0.0 0.00 0.36 0.36 94 1011.8
20260507214002 11 137 0.0 0.0 0.00 0.36 0.36 94 1011.7
20260507213458 11 132 0.0 1.6 0.00 0.36 0.36 94 1011.6
20260507212955 11 157 0.0 0.0 0.00 0.36 0.36 94 1012.0
20260507212451 11 142 0.0 1.6 0.18 0.36 0.36 95 1011.5
20260507211948 10 157 0.0 0.0 0.18 0.36 0.36 94 1011.6
20260507211445 11 135 0.0 0.0 0.00 0.33 0.33 94 1011.7
20260507210941 10 145 0.0 0.0 0.00 0.33 0.33 94 1011.6
20260507210438 10 152 0.0 0.0 0.13 0.33 0.33 94 1011.7
20260507205934 10 150 1.6 1.6 0.30 0.33 0.33 93 1011.7
20260507205432 10 152 0.0 0.0 0.18 0.30 0.30 93 1012.0
20260507204928 10 160 0.0 0.0 0.30 0.28 0.28 92 1012.6
20260507204419 11 154 0.0 0.0 0.43 0.28 0.28 92 1012.3
20260507203917 11 155 0.0 1.6 0.13 0.23 0.23 91 1011.9
20260507203415 11 160 0.0 0.0 0.00 0.20 0.20 91 1012.2
20260507202910 11 141 0.0 1.6 0.18 0.20 0.20 90 1012.1
20260507202401 11 141 1.6 1.6 0.18 0.20 0.20 89 1011.9
20260507201857 11 121 1.6 4.8 0.13 0.18 0.18 88 1012.0
20260507201352 12 133 0.0 1.6 0.13 0.18 0.18 87 1012.0
20260507200849 12 166 0.0 1.6 0.00 0.15 0.15 84 1012.2
20260507200345 12 154 0.0 0.0 0.00 0.15 0.15 81 1012.2
20260507195841 12 152 0.0 1.6 0.00 0.15 0.15 77 1012.3
20260507195339 12 70 0.0 0.0 0.00 0.15 0.15 77 1011.9
20260507194836 12 154 0.0 1.6 0.00 0.15 0.15 77 1011.8
20260507194332 12 150 0.0 1.6 0.00 0.15 0.15 79 1012.0
20260507193828 12 76 1.6 1.6 0.00 0.15 0.15 76 1012.2
20260507193326 13 0 3.2 4.8 0.00 0.15 0.15 76 1012.1
20260507192820 13 132 0.0 3.2 0.00 0.15 0.15 76 1012.1
20260507192313 13 151 0.0 1.6 0.00 0.15 0.15 76 1012.4
20260507191809 13 195 1.6 1.6 0.00 0.15 0.15 75 1012.5
20260507191305 13 60 1.6 3.2 0.00 0.15 0.15 74 1012.5
20260507190802 13 151 0.0 0.0 0.00 0.15 0.15 74 1012.3
20260507190301 13 158 0.0 0.0 0.00 0.15 0.15 73 1012.3
20260507185800 13 142 0.0 1.6 0.00 0.15 0.15 73 1012.4
20260507185255 13 121 0.0 0.0 0.00 0.15 0.15 75 1012.4
20260507184753 13 339 3.2 4.8 0.00 0.15 0.15 74 1012.3
20260507184250 13 111 0.0 0.0 0.00 0.15 0.15 76 1012.2
20260507183747 13 142 1.6 4.8 0.00 0.15 0.15 75 1012.3
20260507183243 13 136 1.6 1.6 0.00 0.15 0.15 74 1012.5
20260507182741 13 144 1.6 3.2 0.00 0.15 0.15 72 1012.6
20260507182236 13 135 1.6 3.2 0.00 0.15 0.15 71 1012.3
20260507181734 14 143 0.0 6.4 0.00 0.15 0.15 72 1012.5
20260507181230 14 119 0.0 3.2 0.00 0.15 0.15 72 1012.4
20260507180727 13 162 1.6 3.2 0.00 0.15 0.15 72 1012.3
20260507180223 14 101 0.0 3.2 0.00 0.15 0.15 71 1012.3
20260507175719 14 147 0.0 9.7 0.00 0.15 0.15 72 1012.4
20260507175216 13 35 0.0 3.2 0.00 0.15 0.15 70 1012.5
20260507174714 13 250 3.2 9.7 0.00 0.15 0.15 72 1012.6
20260507174211 13 145 0.0 4.8 0.00 0.15 0.15 72 1012.7
20260507173708 13 84 3.2 4.8 0.00 0.15 0.15 74 1012.7
20260507173205 13 39 3.2 6.4 0.00 0.15 0.15 73 1013.0
20260507172701 13 45 1.6 4.8 0.00 0.15 0.15 73 1012.8
20260507172158 13 137 1.6 1.6 0.00 0.15 0.15 73 1012.9
20260507171653 13 143 0.0 3.2 0.00 0.15 0.15 74 1012.9
20260507171150 13 130 1.6 6.4 0.00 0.15 0.15 73 1013.0
20260507170647 13 133 0.0 3.2 0.00 0.15 0.15 74 1013.3
20260507170145 13 141 0.0 1.6 0.00 0.15 0.15 76 1013.3
20260507165640 13 124 0.0 0.0 0.00 0.15 0.15 75 1013.3
20260507165137 13 141 0.0 1.6 0.00 0.15 0.15 75 1013.3
20260507164632 13 149 0.0 3.2 0.00 0.15 0.15 76 1013.2
20260507164130 13 145 0.0 4.8 0.00 0.15 0.15 76 1013.4
20260507163627 12 346 1.6 12.9 0.00 0.15 0.15 74 1013.3
20260507163124 13 141 0.0 4.8 0.00 0.15 0.15 77 1013.7
20260507162619 13 139 3.2 3.2 0.00 0.15 0.15 79 1013.5
20260507162111 13 9 6.4 9.7 0.00 0.15 0.15 78 1013.4
20260507161608 13 154 1.6 3.2 0.00 0.15 0.15 79 1013.4
20260507161104 13 106 0.0 1.6 0.00 0.15 0.15 79 1013.5
20260507160600 13 165 3.2 11.3 0.00 0.15 0.15 78 1013.6
20260507160057 12 119 3.2 3.2 0.00 0.15 0.15 79 1013.7
20260507155552 12 23 4.8 6.4 0.00 0.15 0.15 80 1013.5
20260507155050 12 357 3.2 6.4 0.00 0.15 0.15 80 1013.6
20260507154546 12 107 1.6 6.4 0.00 0.15 0.15 80 1013.6
20260507154043 12 281 6.4 9.7 0.00 0.15 0.15 79 1013.6
20260507153540 12 163 1.6 12.9 0.00 0.15 0.15 79 1013.3
20260507153036 12 332 3.2 6.4 0.00 0.15 0.15 79 1013.5
20260507152532 13 127 3.2 4.8 0.00 0.15 0.15 78 1013.6
20260507152029 13 354 1.6 17.7 0.00 0.15 0.15 77 1013.5
20260507151525 13 58 0.0 14.5 0.00 0.15 0.15 76 1013.8
20260507151022 13 111 1.6 11.3 0.00 0.15 0.15 77 1013.8
20260507150519 13 49 3.2 4.8 0.00 0.15 0.15 79 1013.9
20260507150016 13 145 1.6 4.8 0.00 0.15 0.15 79 1013.4
20260507145510 13 356 3.2 4.8 0.00 0.15 0.15 80 1013.2
20260507145009 13 69 3.2 9.7 0.00 0.15 0.15 79 1013.4
20260507144505 13 21 4.8 6.4 0.00 0.15 0.15 79 1013.2
20260507144003 13 116 3.2 4.8 0.00 0.15 0.15 78 1013.4
20260507143500 13 327 1.6 4.8 0.00 0.15 0.15 79 1013.5
20260507142956 13 133 0.0 3.2 0.00 0.15 0.15 80 1013.3
20260507142452 13 20 1.6 4.8 0.00 0.15 0.15 78 1013.5
20260507141949 13 138 0.0 0.0 0.00 0.15 0.15 79 1013.6
20260507141445 13 149 1.6 3.2 0.00 0.15 0.15 79 1013.6
20260507140942 13 81 3.2 12.9 0.00 0.15 0.15 79 1013.6
20260507140439 13 170 3.2 6.4 0.00 0.15 0.15 79 1013.8
20260507135936 13 148 1.6 6.4 0.00 0.15 0.15 79 1013.8
20260507135433 13 15 1.6 3.2 0.00 0.15 0.15 79 1013.6
20260507134930 14 19 3.2 4.8 0.00 0.15 0.15 78 1013.8
20260507134427 13 172 1.6 6.4 0.00 0.15 0.15 79 1013.4
20260507133923 13 31 6.4 9.7 0.00 0.15 0.15 78 1013.4
20260507133418 13 29 3.2 4.8 0.00 0.15 0.15 78 1013.4
20260507132912 13 145 1.6 3.2 0.00 0.15 0.15 79 1013.3
20260507132407 13 325 9.7 12.9 0.00 0.15 0.15 80 1013.2
20260507131906 13 223 3.2 9.7 0.00 0.15 0.15 80 1013.4
20260507131401 13 326 8.0 12.9 0.00 0.15 0.15 80 1013.6
20260507130858 13 8 4.8 9.7 0.00 0.15 0.15 81 1013.2
20260507130355 13 163 1.6 11.3 0.00 0.15 0.15 82 1013.2
20260507125854 13 51 3.2 4.8 0.00 0.15 0.15 83 1013.4
20260507125351 13 332 9.7 14.5 0.00 0.15 0.15 82 1013.2
20260507124849 13 134 0.0 11.3 0.00 0.15 0.15 84 1013.5
20260507124344 13 163 6.4 11.3 0.00 0.15 0.15 85 1013.2
20260507123843 13 141 1.6 4.8 0.00 0.15 0.15 90 1013.2
20260507123340 13 10 4.8 11.3 0.00 0.15 0.15 91 1013.4
20260507122836 13 68 3.2 4.8 0.00 0.15 0.15 92 1013.1
20260507122332 13 82 1.6 3.2 0.00 0.15 0.15 92 1013.0
20260507121828 13 349 1.6 3.2 0.00 0.15 0.15 92 1012.8
20260507121324 13 43 6.4 12.9 0.00 0.15 0.15 92 1013.0
20260507120821 13 17 1.6 4.8 0.00 0.15 0.15 92 1012.8
20260507120317 13 92 1.6 3.2 0.00 0.15 0.15 92 1013.3
20260507115813 13 144 1.6 6.4 0.00 0.15 0.15 92 1013.2
20260507115309 13 4 4.8 4.8 0.00 0.15 0.15 92 1012.9
20260507114805 13 274 3.2 3.2 0.00 0.15 0.15 91 1013.3
20260507114302 13 229 3.2 4.8 0.00 0.15 0.15 91 1013.2
20260507113800 13 168 1.6 4.8 0.00 0.15 0.15 91 1013.1
20260507113256 13 301 1.6 4.8 0.00 0.15 0.15 92 1013.0
20260507112754 13 122 4.8 6.4 0.00 0.15 0.15 93 1012.8
20260507112251 13 113 4.8 4.8 0.00 0.15 0.15 93 1012.8
20260507111749 13 142 0.0 1.6 0.00 0.15 0.15 94 1012.6
20260507111245 13 19 3.2 4.8 0.00 0.15 0.15 95 1012.7
20260507110741 13 151 0.0 1.6 0.00 0.15 0.15 95 1012.9
20260507110238 13 178 0.0 0.0 0.00 0.15 0.15 95 1012.7
20260507105735 13 225 0.0 1.6 0.00 0.15 0.15 96 1012.5
20260507105231 13 22 0.0 1.6 0.00 0.15 0.15 96 1012.5
20260507104728 13 173 0.0 3.2 0.00 0.15 0.15 96 1012.4
20260507104225 13 94 1.6 3.2 0.00 0.15 0.15 96 1012.6
20260507103721 13 322 1.6 3.2 0.00 0.15 0.15 96 1012.0
20260507103217 13 352 1.6 4.8 0.00 0.15 0.15 96 1012.3
20260507102713 13 74 1.6 1.6 0.00 0.15 0.15 96 1012.3
20260507102210 13 153 0.0 4.8 0.00 0.15 0.15 96 1012.0
20260507101706 13 107 1.6 4.8 0.00 0.15 0.15 96 1011.9
20260507101201 13 162 3.2 3.2 0.00 0.15 0.15 97 1012.1
20260507100659 13 149 0.0 4.8 0.00 0.15 0.15 97 1012.3
20260507100158 13 359 3.2 4.8 0.00 0.15 0.15 96 1012.3
20260507095655 13 172 0.0 1.6 0.18 0.15 0.15 96 1012.4
20260507095151 13 68 4.8 6.4 0.66 0.15 0.15 95 1012.2
20260507094648 13 289 4.8 6.4 0.48 0.13 0.13 94 1012.2
20260507094145 13 203 1.6 3.2 0.00 0.05 0.05 93 1012.4
20260507093642 13 283 3.2 9.7 0.00 0.05 0.05 93 1012.5
20260507093141 13 159 3.2 4.8 0.00 0.05 0.05 93 1012.4
20260507092637 13 127 0.0 1.6 0.00 0.05 0.05 93 1012.1
20260507092134 14 111 1.6 9.7 0.00 0.05 0.05 92 1012.3
20260507091630 14 149 1.6 4.8 0.13 0.05 0.05 94 1012.3
20260507091126 14 35 3.2 3.2 0.30 0.05 0.05 93 1012.0
20260507090622 15 163 1.6 3.2 0.18 0.03 0.03 93 1012.5
20260507090120 15 77 8.0 11.3 0.00 0.00 0.00 92 1012.2
20260507085616 15 8 3.2 9.7 0.00 0.00 0.00 92 1012.4
20260507085113 15 182 1.6 6.4 0.00 0.00 0.00 92 1012.0
20260507084610 15 150 0.0 12.9 0.00 0.00 0.00 92 1012.0
20260507084107 15 1 4.8 6.4 0.00 0.00 0.00 92 1011.8
20260507083603 15 6 6.4 12.9 0.00 0.00 0.00 92 1011.8
20260507083101 15 41 1.6 4.8 0.00 0.00 0.00 91 1011.4
20260507082556 16 294 3.2 12.9 0.00 0.00 0.00 91 1011.7
20260507082053 16 102 1.6 6.4 0.00 0.00 0.00 92 1011.8
20260507081549 17 317 4.8 9.7 0.00 0.00 0.00 93 1011.6
20260507081046 17 102 1.6 14.5 0.00 0.00 0.00 93 1011.4
20260507080542 18 200 1.6 11.3 0.00 0.00 0.00 94 1011.0
20260507080038 18 162 0.0 6.4 0.00 0.00 0.00 93 1011.0
20260507075534 19 33 3.2 9.7 0.00 0.00 0.00 92 1010.9
20260507075030 19 349 3.2 9.7 0.00 0.00 0.00 92 1010.5
20260507074527 19 344 0.0 3.2 0.00 0.00 0.00 92 1010.9
20260507074026 19 151 0.0 3.2 0.00 0.00 0.00 91 1010.9
20260507073521 19 144 0.0 1.6 0.00 0.00 0.00 91 1010.9
20260507073018 19 149 0.0 1.6 0.00 0.00 0.00 91 1010.8
20260507072516 19 145 0.0 0.0 0.00 0.00 0.00 90 1011.0
20260507072013 20 141 0.0 0.0 0.00 0.00 0.00 90 1010.9
20260507071510 19 102 0.0 0.0 0.00 0.00 0.00 90 1011.1
20260507071006 20 156 0.0 1.6 0.00 0.00 0.00 90 1011.1
20260507070504 20 109 1.6 1.6 0.00 0.00 0.00 90 1010.8
20260507070001 20 153 0.0 1.6 0.00 0.00 0.00 89 1010.4
20260507065457 20 126 0.0 0.0 0.00 0.00 0.00 89 1010.3
20260507064954 20 141 1.6 3.2 0.00 0.00 0.00 88 1010.2
20260507064452 20 151 0.0 1.6 0.00 0.00 0.00 88 1010.3
20260507063950 20 141 0.0 1.6 0.00 0.00 0.00 87 1010.2
20260507063447 20 154 0.0 3.2 0.00 0.00 0.00 87 1009.9
20260507062943 20 151 0.0 6.4 0.00 0.00 0.00 87 1009.7
20260507062441 20 200 3.2 3.2 0.00 0.00 0.00 87 1009.8
20260507061938 20 168 0.0 1.6 0.00 0.00 0.00 87 1009.9
20260507061436 20 169 0.0 3.2 0.00 0.00 0.00 86 1009.8
20260507060934 20 115 3.2 3.2 0.00 0.00 0.00 86 1009.9
20260507060431 20 161 1.6 3.2 0.00 0.00 0.00 85 1009.9
20260507055927 20 177 1.6 4.8 0.00 0.00 0.00 85 1009.8
20260507055422 20 141 3.2 6.4 0.00 0.00 0.00 85 1009.9
20260507054914 20 155 1.6 3.2 0.00 0.00 0.00 85 1010.1
20260507054410 20 154 0.0 3.2 0.00 0.00 0.00 85 1009.9
20260507053908 20 159 0.0 3.2 0.00 0.00 0.00 85 1009.8
20260507053405 21 144 1.6 3.2 0.00 0.00 0.00 85 1010.1
20260507052904 21 145 0.0 6.4 0.00 0.00 0.00 85 1010.2
20260507052401 21 176 0.0 1.6 0.00 0.00 0.00 85 1010.4
20260507051858 20 169 1.6 4.8 0.00 0.00 0.00 85 1010.4
20260507051355 20 197 1.6 6.4 0.00 0.00 0.00 85 1010.9
20260507050852 20 117 1.6 3.2 0.00 0.00 0.00 85 1011.0
20260507050348 20 159 1.6 1.6 0.00 0.00 0.00 85 1011.3
20260507045845 20 132 1.6 3.2 0.00 0.00 0.00 86 1011.3
20260507045342 20 141 1.6 1.6 0.00 0.00 0.00 86 1011.3
20260507044839 20 113 1.6 3.2 0.00 0.00 0.00 86 1011.3
20260507044335 20 136 1.6 3.2 0.00 0.00 0.00 86 1011.1
20260507043831 20 153 1.6 3.2 0.00 0.00 0.00 85 1011.2
20260507043328 20 171 3.2 6.4 0.00 0.00 0.00 86 1011.5
20260507042825 20 211 0.0 4.8 0.00 0.00 0.00 86 1011.5
20260507042320 20 161 0.0 3.2 0.00 0.00 0.00 86 1011.5
20260507041817 20 160 0.0 3.2 0.00 0.00 0.00 86 1011.4
20260507041314 20 185 0.0 1.6 0.00 0.00 0.00 87 1011.1
20260507040811 20 175 1.6 1.6 0.00 0.00 0.00 87 1011.1
20260507040307 20 149 0.0 1.6 0.00 0.00 0.00 87 1011.3
20260507035803 20 144 0.0 1.6 0.00 0.25 0.25 87 1011.3
20260507035259 20 150 0.0 6.4 0.00 0.25 0.25 87 1011.3
20260507034757 20 151 0.0 9.7 0.00 0.25 0.25 87 1011.4
20260507034253 20 181 0.0 1.6 0.00 0.25 0.25 88 1011.6
20260507033752 20 156 1.6 3.2 0.00 0.25 0.25 88 1011.3
20260507033249 20 154 1.6 4.8 0.00 0.25 0.25 87 1011.2
20260507032746 20 178 3.2 6.4 0.00 0.25 0.25 88 1011.0
20260507032242 20 161 0.0 0.0 0.00 0.25 0.25 88 1010.9
20260507031738 20 141 1.6 4.8 0.00 0.25 0.25 88 1011.0
20260507031235 20 174 0.0 3.2 0.00 0.25 0.25 88 1011.0
20260507030732 20 161 1.6 1.6 0.00 0.25 0.25 88 1011.1
20260507030229 20 154 0.0 6.4 0.00 0.25 0.25 88 1010.9
20260507025727 20 151 0.0 1.6 0.00 0.25 0.25 88 1010.9
20260507025223 20 141 0.0 9.7 0.00 0.25 0.25 88 1010.9
20260507024722 20 150 0.0 4.8 0.00 0.25 0.25 88 1010.6
20260507024219 20 174 1.6 1.6 0.00 0.25 0.25 88 1010.9
20260507023714 20 161 1.6 3.2 0.00 0.25 0.25 87 1011.0
20260507023211 20 172 0.0 4.8 0.00 0.25 0.25 87 1011.0
20260507022709 20 169 0.0 3.2 0.00 0.25 0.25 87 1011.4
20260507022204 20 137 0.0 9.7 0.00 0.25 0.25 87 1011.2
20260507021701 20 126 1.6 3.2 0.00 0.25 0.25 87 1011.3
20260507021156 20 125 0.0 3.2 0.00 0.25 0.25 87 1011.4
20260507020655 20 184 1.6 3.2 0.00 0.25 0.25 87 1011.4
20260507020150 20 170 1.6 3.2 0.00 0.25 0.25 87 1011.3
20260507015649 20 192 3.2 3.2 0.00 0.25 0.25 87 1011.5
20260507015146 20 141 1.6 3.2 0.00 0.25 0.25 87 1011.4
20260507014642 20 170 1.6 3.2 0.00 0.25 0.25 87 1011.4
20260507014138 20 159 1.6 3.2 0.00 0.25 0.25 87 1011.3
20260507013636 20 141 0.0 3.2 0.00 0.25 0.25 87 1011.5
20260507013132 20 144 0.0 0.0 0.00 0.25 0.25 87 1011.2
20260507012630 20 149 0.0 1.6 0.00 0.25 0.25 86 1011.4
20260507012125 20 97 0.0 1.6 0.00 0.25 0.25 86 1011.3
20260507011624 20 149 0.0 1.6 0.00 0.25 0.25 86 1011.2
20260507011119 20 164 1.6 1.6 0.00 0.25 0.25 87 1011.0
20260507010614 20 156 0.0 1.6 0.00 0.25 0.25 86 1011.2
20260507010110 20 149 0.0 1.6 0.00 0.25 0.25 86 1011.0
20260507005608 20 150 0.0 1.6 0.00 0.25 0.25 86 1011.2
20260507005104 20 158 1.6 1.6 0.00 0.25 0.25 86 1011.4
20260507004601 20 159 0.0 3.2 0.00 0.25 0.25 86 1011.2
20260507004059 20 153 0.0 3.2 0.00 0.25 0.25 85 1011.2
20260507003554 20 150 0.0 0.0 0.00 0.25 0.25 85 1011.4
20260507003049 20 151 0.0 0.0 0.00 0.25 0.25 84 1011.3
20260507002546 20 151 0.0 1.6 0.00 0.25 0.25 84 1011.4
20260507002042 20 155 1.6 1.6 0.00 0.25 0.25 83 1011.5
20260507001539 20 78 1.6 1.6 0.00 0.25 0.25 83 1011.5
20260507001037 21 166 0.0 1.6 0.00 0.25 0.25 82 1011.5
20260507000533 21 145 0.0 1.6 0.00 0.25 0.25 82 1011.3
20260507000028 21 171 1.6 1.6 0.00 0.25 0.25 82 1011.2
20260506235526 21 150 0.0 1.6 0.00 0.25 0.25 81 1011.1
20260506235021 21 167 0.0 3.2 0.00 0.25 0.25 81 1011.1
20260506234519 21 168 0.0 3.2 0.00 0.25 0.25 80 1011.0
20260506234016 21 149 1.6 4.8 0.00 0.25 0.25 80 1011.0
20260506233512 21 207 1.6 3.2 0.00 0.25 0.25 79 1010.9
20260506233010 21 163 1.6 9.7 0.00 0.25 0.25 79 1010.9
20260506232505 21 150 1.6 3.2 0.00 0.25 0.25 79 1011.0
20260506232001 21 154 3.2 4.8 0.00 0.25 0.25 79 1011.0
20260506231459 21 158 1.6 3.2 0.00 0.25 0.25 78 1011.1
20260506230956 22 167 0.0 1.6 0.00 0.25 0.25 77 1010.6